This is the latest recevied weather packets stored in our database for station/object N7MLR. If no packets are shown the sender has not sent any weather packets the latest 10 day(s).
| Time | Temp. | Humidity | Pressure | Rain* | Wind** | Luminosity | Snow |
|---|---|---|---|---|---|---|---|
| 1777774045 | 15° C | 79% | 1020.5 hPa | 0 mm | - | 0 W/m² | - |
| 1777773743 | 15° C | 78% | 1020.5 hPa | 0 mm | - | 0 W/m² | - |
| 1777773439 | 15° C | 77% | 1020.4 hPa | 0 mm | - | 0 W/m² | - |
| 1777773136 | 15° C | 75% | 1020.4 hPa | 0 mm | - | 0 W/m² | - |
| 1777772832 | 15.56° C | 74% | 1020.1 hPa | 0 mm | - | 0 W/m² | - |
| 1777772530 | 15.56° C | 73% | 1020 hPa | 0 mm | - | 0 W/m² | - |
| 1777772227 | 16.11° C | 71% | 1019.9 hPa | 0 mm | - | 0 W/m² | - |
| 1777771925 | 16.67° C | 68% | 1019.8 hPa | 0 mm | - | 0 W/m² | - |
| 1777771622 | 17.22° C | 65% | 1019.8 hPa | 0 mm | - | 0 W/m² | - |
| 1777771318 | 17.78° C | 65% | 1019.9 hPa | 0 mm | - | 0 W/m² | - |
| 1777771014 | 18.33° C | 59% | 1019.5 hPa | 0 mm | - | 0 W/m² | - |
| 1777770712 | 18.89° C | 59% | 1019.8 hPa | 0 mm | - | 0 W/m² | - |
| 1777770408 | 18.89° C | 56% | 1019.6 hPa | 0 mm | - | 3 W/m² | - |
| 1777770105 | 19.44° C | 55% | 1019.9 hPa | 0 mm | - | 6 W/m² | - |
| 1777769802 | 19.44° C | 53% | 1019.4 hPa | 0 mm | - | 9 W/m² | - |
| 1777769499 | 20° C | 50% | 1019.5 hPa | 0 mm | - | 11 W/m² | - |
| 1777769196 | 20.56° C | 48% | 1019.8 hPa | 0 mm | - | 14 W/m² | - |
| 1777768894 | 20.56° C | 46% | 1019.5 hPa | 0 mm | - | 16 W/m² | - |
| 1777768591 | 20.56° C | 47% | 1019.5 hPa | 0 mm | - | 18 W/m² | - |
| 1777768288 | 21.11° C | 44% | 1019.5 hPa | 0 mm | - | 22 W/m² | - |
| 1777767985 | 21.11° C | 46% | 1019.5 hPa | 0 mm | - | 22 W/m² | - |
| 1777767682 | 21.11° C | 44% | 1019.6 hPa | 0 mm | - | 24 W/m² | - |
| 1777767378 | 21.11° C | 44% | 1019.5 hPa | 0 mm | - | 24 W/m² | - |
| 1777767075 | 21.67° C | 44% | 1019.6 hPa | 0 mm | - | 28 W/m² | - |
| 1777766773 | 21.67° C | 43% | 1019.8 hPa | 0 mm | - | 29 W/m² | - |
* Rain latest hour (hover to see other rain measurements)
** Current wind speed in m/s (hover to see current wind gust speed)